Location: Blanot
(47.1713°N, 4.2340°E)
Time: 07:56:10
(UTC+00:00)

Cosmos 2233 Rocket - Pass Details

Date: 14 July 2020
Orbit: 954 x 990 km, 82.9° (Epoch: 14 August)

Event Time Altitude Azimuth Distance (km) Brightness Sun altitude
Exits shadow 02:39:39 14° 207° (SSW) 2,446 5.5 -11.2°
Maximum altitude 02:45:00 56° 283° (WNW) 1,148 4.2 -10.6°
Drops below altitude 10° 02:51:11 10° 2° (N) 2,742 7.1 -9.9°
Sets 02:53:47 0° 6° (N) 3,699 8.0 -9.6°
